Location: Palomar Mountain Lodge
(33.3110°N, 116.8495°W)
Time: 21:06:38
(UTC-07:00)

Cosmos 1386 Rocket - Pass Details

Date: 19 May 2017
Orbit: 929 x 1006 km, 83.0° (Epoch: 16 October)

Event Time Altitude Azimuth Distance (km) Brightness Sun altitude
Rises 20:27:28 0° 355° (N) 3,663 8.1 -8.9°
Reaches altitude 10° 20:30:00 10° 358° (N) 2,702 7.3 -9.4°
Maximum altitude 20:36:11 76° 83° (E) 977 4.4 -10.5°
Drops below altitude 10° 20:42:12 10° 170° (S) 2,639 6.4 -11.5°
Enters shadow 20:44:10 - 171° (S) 3,385 6.9 -11.9°
